Weather History for KCMA - January, 2014

Change the Weather History Date:

Wednesday, January 8, 2014

  Actual Average Record
Temperature  
Mean Temperature 53 °F 54 °F  
Max Temperature 65 °F 65 °F 85 °F (1962)
Min Temperature 40 °F 44 °F 33 °F (2000)
Degree Days  
Heating Degree Days 12 11  
Month to date heating degree days 75 88  
Since 1 July heating degree days 586 769  
Cooling Degree Days 0 0  
Month to date cooling degree days 0 0  
Year to date cooling degree days 0 0  
Growing Degree Days 4 (Base 50)    
Moisture  
Dew Point 44 °F    
Average Humidity 67    
Maximum Humidity 93    
Minimum Humidity 40    
Precipitation  
Precipitation 0.00 in 0.13 in 2.75 in (1974)
Month to date precipitation 0.00 1.13  
Year to date precipitation 0.00 1.13  
Since 1 July precipitation 0.82 5.37  
Sea Level Pressure  
Sea Level Pressure 30.09 in    
Wind  
Wind Speed 4 mph (ESE)    
Max Wind Speed 12 mph    
Max Gust Speed 15 mph    
Visibility 10 miles    
Events      
T = Trace of Precipitation, MM = Missing Value Source: NWS Daily Summary

Daily Weather History Graph

Daily Weather History Graph

Search for Another Location

Airport or City:

Trip Planner

Search our weather history database for the weather conditions in past years. The results will help you decide how hot, cold, wet, or windy it might be!

Date:

Astronomy

Jan. 08, 2014 Rise Set
Actual Time 7:02 AM PST 5:03 PM PST
Civil Twilight 6:35 AM PST 5:31 PM PST
Nautical Twilight 6:04 AM PST 6:02 PM PST
Astronomical Twilight 5:34 AM PST 6:32 PM PST
Moon 11:50 AM PST (1/8) 12:22 AM PST (1/8)
Length of Visible Light 10h 55m
Length of Day
10h 00m
First Quarter, 57% of the Moon is Illuminated
Jan 8
First Quarter
Jan 15
Full
Jan 23
Last Quarter
Jan 30
New
Feb 6
First Quarter

Hourly Weather History & Observations

Time (PST) Temp. Windchill Dew Point Humidity Pressure Visibility Wind Dir Wind Speed Gust Speed Precip Events Conditions
12:55 AM 44.1 °F - 37.9 °F 79% 30.10 in 10.0 mi Calm Calm - N/A   Clear
1:55 AM 44.1 °F 40.8 °F 37.0 °F 76% 30.09 in 10.0 mi NE 5.8 mph - N/A   Clear
2:55 AM 43.0 °F - 36.0 °F 76% 30.09 in 10.0 mi Calm Calm - N/A   Clear
3:55 AM 43.0 °F - 35.1 °F 74% 30.09 in 10.0 mi Calm Calm - N/A   Clear
4:55 AM 43.0 °F - 34.0 °F 71% 30.07 in 10.0 mi Calm Calm - N/A   Clear
5:55 AM 44.1 °F 42.5 °F 30.0 °F 58% 30.07 in 10.0 mi ENE 3.5 mph - N/A   Clear
6:55 AM 43.0 °F - 34.0 °F 71% 30.09 in 10.0 mi Calm Calm - N/A   Clear
7:55 AM 45.0 °F 43.5 °F 32.0 °F 60% 30.12 in 10.0 mi East 3.5 mph - N/A   Clear
8:55 AM 51.1 °F - 32.0 °F 48% 30.14 in 10.0 mi ENE 3.5 mph - N/A   Clear
9:55 AM 59.0 °F - 36.0 °F 42% 30.15 in 10.0 mi Calm Calm - N/A   Clear
10:55 AM 61.0 °F - 48.0 °F 62% 30.13 in 10.0 mi SW 4.6 mph - N/A   Clear
11:55 AM 64.0 °F - 48.9 °F 58% 30.09 in 10.0 mi SW 6.9 mph - N/A   Clear
12:55 PM 63.0 °F - 50.0 °F 63% 30.06 in 10.0 mi SSW 6.9 mph - N/A   Clear
1:55 PM 64.0 °F - 51.1 °F 63% 30.05 in 10.0 mi SW 10.4 mph - N/A   Clear
2:55 PM 63.0 °F - 50.0 °F 63% 30.05 in 10.0 mi SW 6.9 mph - N/A   Clear
3:55 PM 61.0 °F - 53.1 °F 75% 30.05 in 10.0 mi South 5.8 mph - N/A   Clear
4:55 PM 59.0 °F - 53.1 °F 81% 30.05 in 8.0 mi South 3.5 mph - N/A   Clear
5:55 PM 57.0 °F - 51.1 °F 81% 30.06 in 10.0 mi West 3.5 mph - N/A   Clear
6:55 PM 55.0 °F - 50.0 °F 83% 30.08 in 10.0 mi East 3.5 mph - N/A   Clear
7:55 PM 54.0 °F - 50.0 °F 86% 30.08 in 10.0 mi ENE 6.9 mph - N/A   Clear
8:55 PM 54.0 °F - 51.1 °F 90% 30.09 in 9.0 mi East 8.1 mph - N/A   Clear
9:55 PM 53.1 °F - 48.9 °F 86% 30.10 in 9.0 mi East 3.5 mph - N/A   Clear
10:55 PM 53.1 °F - 48.9 °F 86% 30.09 in 9.0 mi ENE 5.8 mph - N/A   Clear
11:55 PM 51.1 °F - 48.0 °F 89% 30.09 in 9.0 mi ENE 5.8 mph - N/A   Clear